Calgary Springbank,

11:50 PM MDT on October 17, 2017 (GMT -0600)
Calgary Springbank

Weather History for CYBW - July, 2013

Change the Weather History Date:

Wednesday, July 10, 2013

  Actual Average Record
Temperature  
Mean Temperature 62 °F -  
Max Temperature 80 °F 70 °F 86 °F (2001)
Min Temperature 43 °F 43 °F 37 °F (2003)
Degree Days  
Heating Degree Days 4    
Growing Degree Days 12 (Base 50)    
Moisture  
Dew Point 53 °F    
Average Humidity 60    
Maximum Humidity 93    
Minimum Humidity 31    
Precipitation  
Precipitation 0.00 in - - ()
Sea Level Pressure  
Sea Level Pressure 29.88 in    
Wind  
Wind Speed 8 mph ()    
Max Wind Speed 14 mph    
Max Gust Speed 22 mph    
Visibility 20.0 miles    
Events      
Averages and records for this station are not official NWS values.
T = Trace of Precipitation, MM = Missing Value Source: Averaged Metar Reports

Daily Weather History Graph

Daily Weather History Graph

Search for Another Location

Airport or City:

Trip Planner

Search our weather history database for the weather conditions in past years. The results will help you decide how hot, cold, wet, or windy it might be!

Date:

Astronomy

Jul. 10, 2013 Rise Set
Actual Time 5:34 AM MDT 9:50 PM MDT
Civil Twilight 4:49 AM MDT 10:35 PM MDT
Nautical Twilight 3:44 AM MDT 11:40 PM MDT
Astronomical Twilight 2:15 AM MDT 1:10 AM MDT
Moon 8:22 AM MDT (7/10) 10:35 PM MDT (7/10)
Length of Visible Light 17h 45m
Length of Day
16h 15m
Waxing Crescent, 5% of the Moon is Illuminated
Jul 10
Waxing Crescent
Jul 15
First Quarter
Jul 22
Full
Jul 29
Last Quarter
Aug 6
New

Hourly Weather History & Observations

Time (MDT) Temp. Windchill Dew Point Humidity Pressure Visibility Wind Dir Wind Speed Gust Speed Precip Events Conditions
5:00 AM 44.6 °F 39.2 °F 42.8 °F 93% 30.04 in 20.0 mi NW 10.4 mph - N/A   Partly Cloudy
6:00 AM 44 °F - 42 °F 92% 30.04 in 28 mi NW 8.1 mph - -   Scattered Clouds
6:00 AM 44.6 °F 39.7 °F 42.8 °F 93% 30.04 in 30.0 mi NW 9.2 mph - N/A   Scattered Clouds
7:00 AM 50.0 °F - 46.4 °F 87% 30.02 in 30.0 mi WNW 6.9 mph - N/A   Scattered Clouds
8:00 AM 55.4 °F - 50.0 °F 82% 30.01 in 30.0 mi NW 3.5 mph - N/A   Scattered Clouds
9:00 AM 62.6 °F - 51.8 °F 68% 29.99 in 30.0 mi NW 2.3 mph - N/A   Partly Cloudy
10:00 AM 68.0 °F - 57.2 °F 68% 29.96 in 30.0 mi Calm Calm - N/A   Partly Cloudy
11:00 AM 75.2 °F - 57.2 °F 53% 29.94 in 30.0 mi SSE 6.9 mph - N/A   Partly Cloudy
12:00 PM 77 °F - 52 °F 31% 29.90 in 28 mi SSE 12.7 mph - -   Scattered Clouds
12:00 PM 77.0 °F - 51.8 °F 41% 29.90 in 30.0 mi SSE 13.8 mph - N/A   Partly Cloudy
1:00 PM 77.0 °F - 55.4 °F 47% 29.89 in 30.0 mi SSE 12.7 mph 21.9 mph N/A   Partly Cloudy
2:00 PM 78.8 °F - 59.0 °F 51% 29.86 in 30.0 mi SE 11.5 mph 21.9 mph N/A   Partly Cloudy
3:00 PM 77.0 °F - 57.2 °F 50% 29.83 in 30.0 mi South 11.5 mph 20.7 mph N/A   Partly Cloudy
4:00 PM 78.8 °F - 57.2 °F 47% 29.81 in 30.0 mi SSE 13.8 mph - N/A   Partly Cloudy
5:00 PM 78.8 °F - 55.4 °F 44% 29.80 in 30.0 mi SSE 12.7 mph - N/A   Partly Cloudy
6:00 PM 78 °F - 55 °F 35% 29.78 in 28 mi SSE 10.4 mph - -  
6:00 PM 77.0 °F - 55.4 °F 47% 29.78 in 30.0 mi SSE 11.5 mph - N/A   Partly Cloudy
7:00 PM 78.8 °F - 55.4 °F 44% 29.74 in 30.0 mi SSE 9.2 mph - N/A   Partly Cloudy
8:00 PM 75.2 °F - 57.2 °F 53% 29.72 in 30.0 mi South 5.8 mph - N/A   Partly Cloudy
9:00 PM 69.8 °F - 53.6 °F 56% 29.70 in 30.0 mi SSW 5.8 mph - N/A   Clear
10:00 PM 60.8 °F - 50.0 °F 68% 29.74 in 30.0 mi South 6.9 mph - N/A   Clear